Weather History for Marathon, FL

Change the Weather History Date:

Monday, March 12, 2012

  Actual Average Record
Temperature  
Mean Temperature 77 °F 73 °F  
Max Temperature 82 °F 79 °F 86 °F (1997)
Min Temperature 72 °F 68 °F 57 °F (1998)
Degree Days  
Heating Degree Days 0 0  
Month to date heating degree days 0 0  
Since 1 July heating degree days 33 75  
Cooling Degree Days 12 9  
Month to date cooling degree days 149 98  
Year to date cooling degree days 660 480  
Growing Degree Days 26 (Base 50)    
Moisture  
Dew Point 64 °F    
Average Humidity 69    
Maximum Humidity 84    
Minimum Humidity 54    
Precipitation  
Precipitation 0.04 in 0.06 in 0.28 in (2014)
Month to date precipitation 0.22 0.91  
Year to date precipitation 2.88 4.73  
Snow  
Snow 0.00 in - - ()
Month to date snowfall 0.0  
Since 1 July snowfall 0.0  
Snow Depth 0.00 in    
Sea Level Pressure  
Sea Level Pressure 30.18 in    
Wind  
Wind Speed 14 mph (East)    
Max Wind Speed 18 mph    
Max Gust Speed 30 mph    
Visibility 10 miles    
Events Rain    
T = Trace of Precipitation, MM = Missing Value Source: NWS Daily Summary

Daily Weather History Graph

Daily Weather History Graph

Search for Another Location

Airport:

Trip Planner

Search our weather history database for the weather conditions in past years. The results will help you decide how hot, cold, wet, or windy it might be!

Date:

Astronomy

Mar. 12, 2012 Rise Set
Actual Time 7:35 AM EDT 7:32 PM EDT
Civil Twilight 7:13 AM EDT 7:54 PM EDT
Nautical Twilight 6:46 AM EDT 8:21 PM EDT
Astronomical Twilight 6:20 AM EDT 8:47 PM EDT
Moon No Moon Rise 10:32 AM EDT (3/12)
Length of Visible Light 12h 41m
Length of Day
11h 56m
Waning Gibbous, 76% of the Moon is Illuminated
Mar 12
Waning Gibbous
Mar 14
Last Quarter
Mar 22
New
Mar 30
First Quarter
Apr 6
Full

Hourly Weather History & Observations

Time (EDT) Temp. Heat Index Dew Point Humidity Pressure Visibility Wind Dir Wind Speed Gust Speed Precip Events Conditions
12:02 AM 71.6 °F - 68.0 °F 88% 30.21 in 2.5 mi East 18.4 mph 26.5 mph 0.07 in Rain Heavy Rain
12:20 AM 71.6 °F - 66.2 °F 83% 30.20 in 10.0 mi East 12.7 mph 23.0 mph 0.09 in   Overcast
12:33 AM 71.6 °F - 68.0 °F 88% 30.20 in 10.0 mi East 10.4 mph 18.4 mph 0.09 in   Mostly Cloudy
1:53 AM 73.9 °F - 66.9 °F 79% 30.19 in 10.0 mi East 12.7 mph - 0.00 in   Mostly Cloudy
2:53 AM 73.0 °F - 66.0 °F 79% 30.17 in 10.0 mi East 9.2 mph 21.9 mph N/A   Scattered Clouds
3:53 AM 73.9 °F - 66.0 °F 76% 30.15 in 10.0 mi East 11.5 mph 21.9 mph 0.00 in   Mostly Cloudy
4:33 AM 73.4 °F - 66.2 °F 78% 30.14 in 10.0 mi East 13.8 mph 24.2 mph N/A   Mostly Cloudy
4:53 AM 73.9 °F - 64.9 °F 73% 30.14 in 10.0 mi East 11.5 mph 21.9 mph N/A   Mostly Cloudy
5:53 AM 75.0 °F - 64.9 °F 71% 30.14 in 10.0 mi East 12.7 mph 21.9 mph N/A   Mostly Cloudy
6:53 AM 75.0 °F - 64.9 °F 71% 30.17 in 10.0 mi East 13.8 mph 21.9 mph N/A   Mostly Cloudy
7:53 AM 73.0 °F - 66.0 °F 79% 30.19 in 10.0 mi East 12.7 mph 19.6 mph 0.04 in   Overcast
8:03 AM 73.4 °F - 64.4 °F 73% 30.19 in 10.0 mi East 11.5 mph 21.9 mph N/A   Overcast
8:53 AM 75.0 °F - 66.0 °F 73% 30.21 in 9.0 mi East 13.8 mph 20.7 mph N/A   Overcast
9:53 AM 77.0 °F - 66.0 °F 69% 30.22 in 10.0 mi East 18.4 mph 25.3 mph 0.00 in   Partly Cloudy
10:53 AM 79.0 °F - 64.9 °F 62% 30.23 in 10.0 mi East 18.4 mph 24.2 mph N/A   Scattered Clouds
11:53 AM 79.0 °F - 64.0 °F 60% 30.24 in 10.0 mi East 17.3 mph 24.2 mph N/A   Scattered Clouds
12:53 PM 80.1 °F 81.7 °F 64.0 °F 58% 30.22 in 10.0 mi East 17.3 mph 25.3 mph N/A   Partly Cloudy
1:53 PM 81.0 °F 82.2 °F 63.0 °F 54% 30.19 in 10.0 mi East 15.0 mph 23.0 mph N/A   Partly Cloudy
2:53 PM 81.0 °F 82.2 °F 63.0 °F 54% 30.18 in 10.0 mi East 15.0 mph 23.0 mph N/A   Partly Cloudy
3:53 PM 81.0 °F 82.2 °F 63.0 °F 54% 30.16 in 10.0 mi ENE 15.0 mph 23.0 mph N/A   Partly Cloudy
4:53 PM 79.0 °F - 62.1 °F 56% 30.15 in 10.0 mi East 16.1 mph 20.7 mph N/A   Scattered Clouds
5:53 PM 78.1 °F - 63.0 °F 60% 30.15 in 10.0 mi East 17.3 mph 21.9 mph N/A   Mostly Cloudy
6:53 PM 77.0 °F - 62.1 °F 60% 30.16 in 10.0 mi ENE 16.1 mph 21.9 mph N/A   Mostly Cloudy
7:53 PM 75.9 °F - 62.1 °F 62% 30.17 in 10.0 mi ENE 12.7 mph 19.6 mph N/A   Mostly Cloudy
8:53 PM 75.0 °F - 62.1 °F 64% 30.18 in 10.0 mi ENE 12.7 mph - N/A   Scattered Clouds
9:53 PM 75.0 °F - 63.0 °F 66% 30.19 in 10.0 mi ENE 12.7 mph - N/A   Scattered Clouds
10:53 PM 73.9 °F - 62.1 °F 66% 30.20 in 10.0 mi ENE 12.7 mph - N/A   Partly Cloudy
11:53 PM 73.9 °F - 62.1 °F 66% 30.20 in 10.0 mi ENE 13.8 mph - N/A   Partly Cloudy